Regional Weather Roundup
Issued by NWS Spokane, WA

Home | Current Version | Previous Version | Text Only | Print | Product List | Glossary On
Versions: 1 2 3 4 5 6 7 8 9 10 11 12 13 14 15 16 17 18 19 20 21 22 23 24 25 26 27 28 29 30 31 32 33 34 35 36 37 38 39 40 41 42 43 44 45 46 47 48 49 50
791
NZUS01 KOTX 080610
RWROTX
EASTERN WASHINGTON/NORTHERN IDAHO ROUNDUP
NATIONAL WEATHER SERVICE, SPOKANE WA
1000 PM PST SUN FEB 07 2016

Note: "fair" indicated few or no clouds below 12,000 feet with no
significant weather and/or obstructions to visibility.

...NORTHEAST WASHINGTON AND NORTHERN IDAHO PANHANDLE...

CITY           SKY/WX    TMP DP  RH WIND       PRES   REMARKS
SPOKANE INTL   MOCLDY    35  29  78 CALM      30.62R
SPOKANE DOWNTO CLEAR     35  30  82 CALM      30.64R
COEUR D ALENE  MOCLDY    34  28  80 NE7       30.61R WCI  28
DEER PARK      PTCLDY    33  28  81 NW6       30.64S WCI  28
SANDPOINT      CLEAR     30  30 100 CALM      30.65S
BONNERS FERRY  MOCLDY    28  27  93 CALM      30.66S

...SOUTHEAST WASHINGTON AND SOUTHERN IDAHO PANHANDLE...

CITY           SKY/WX    TMP DP  RH WIND       PRES   REMARKS
WALLA WALLA    CLEAR     38  33  82 SE5       30.60F
PULLMAN/MOSCOW CLEAR     37  29  72 E8        30.62S
LEWISTON       CLEAR     37  31  78 CALM      30.63F
LOWELL           N/A     37  34  89 NW3       30.71F

...COLUMBIA BASIN...

CITY           SKY/WX    TMP DP  RH WIND       PRES   REMARKS
EPHRATA        PTCLDY    36  30  79 NW10      30.63F
MOSES LAKE     PTCLDY    33  30  88 NW5       30.64F WCI  29
TRI CITIES     CLEAR     33  31  92 NW3       30.66S
HERMISTON      CLEAR     36  32  85 E3        30.62S
PENDLETON      CLEAR     36  32  85 SE6       30.59F

...EAST SLOPES CASCADES...

CITY           SKY/WX    TMP DP  RH WIND       PRES   REMARKS
THE DALLES     CLEAR     40  34  79 CALM      30.64S
YAKIMA         CLEAR     33  26  75 W7        30.65R WCI  27
ELLENSBURG     PTCLDY    28  23  81 CALM      30.62F
WENATCHEE      PTCLDY    34  27  75 CALM      30.65S
OMAK           CLOUDY    29  25  85 W5        30.67S WCI  24

...SOUTHERN BRITISH COLUMBIA...

CITY           SKY/WX    TMP DP  RH WIND       PRES   REMARKS
PENTICTON      MOCLDY    32  28  86 CALM      30.67F

...WESTERN MONTANA...

CITY           SKY/WX    TMP DP  RH WIND       PRES   REMARKS
MISSOULA       CLOUDY    33  27  78 S6        30.62R WCI  28

...NEIGHBORING CITIES...

CITY           SKY/WX    TMP DP  RH WIND       PRES   REMARKS
SEATTLE        CLEAR     42  37  82 N5        30.50F
CALGARY        CLEAR     27  10  50 S5        30.31F WCI  21



USA.gov is the U.S. government's official web portal to all federal, state and local government web resources and services.